{"data":{"norad_id":68570,"intl_designator":"2026-070AE","name":"STARLINK-37228","alt_names":[],"object_type":"PAYLOAD","status":"ACTIVE","operator":null,"country":"US","launch_date":"2026-04-02","launch_site_code":"AFETR","launch_vehicle":null,"mission":null,"orbit_class":"UNKNOWN","rcs_meters":null,"size_class":null,"mass_kg":null,"dimensions":null,"purposes":["comms"],"wikipedia_slug":null,"has_3d_model":false,"image_url":null,"decayed_at":null,"tle_current":{"epoch":"2026-09-20T01:08:53.439072Z","epoch_age_seconds":83836,"freshness":"FRESH","line1":"1 68570U 26070AE  26263.04784073  .00023306  00000+0  69850-3 0  9997","line2":"2 68570  53.1583 176.1481 0001945  94.9078 265.2147 15.34411996 26364","mean_motion":15.34411996,"eccentricity":0.0001945,"inclination_deg":53.1583,"raan_deg":176.1481,"arg_perigee_deg":94.9078,"mean_anomaly_deg":265.2147,"bstar":0.0006985,"rev_number":2636,"period_min":93.847024381579,"perigee_km":461.33704930741,"apogee_km":463.99812229129,"semimajor_km":6840.8045857994,"source":"CELESTRAK","updated_at":"2026-09-20T09:00:43.940414Z"}}}